CW5586 Weather Reports


Display with metric or nautical units.
time (UTC)temp
F
wind
direction
speed
MPH
gust
MPH
rain 1hr
in
rain 24hr
in
rain mn
in
humidity
%
barometer
mb
20260902094604 63 246 7.0 18.0 0.00 0.07 0.07 58 1011.8
20260902094104 63 259 7.0 18.0 0.00 0.07 0.07 56 1011.8
20260902091604 63 275 6.0 14.0 0.00 0.07 0.07 64 1011.8
20260902091104 63 281 5.0 16.0 0.00 0.07 0.07 62 1011.7
20260902090604 63 271 14.0 16.0 0.00 0.07 0.07 66 1011.7
20260902090115 63 265 5.0 15.0 0.00 0.07 0.07 70 1011.6
20260902083105 62 265 3.0 16.0 0.00 0.07 0.07 74 1011.4
20260902074604 61 235 5.0 12.0 0.00 0.07 0.07 87 1011.1
20260902073105 61 306 3.0 14.0 0.00 0.07 0.07 87 1011.1
20260902071604 61 239 12.0 12.0 0.00 0.07 0.07 89 1011.0
20260902071103 61 155 7.0 14.0 0.00 0.07 0.07 90 1010.8
20260902070604 60 236 2.0 15.0 0.00 0.07 0.07 91 1010.9
20260902063104 59 232 8.0 9.0 0.00 0.07 0.07 92 1010.9
20260902061604 59 205 5.0 9.0 0.00 0.07 0.07 93 1010.9
20260902060604 59 192 5.0 8.0 0.00 0.07 0.07 93 1010.9
20260902060115 59 234 2.0 9.0 0.00 0.07 0.07 93 1010.9
20260902054604 59 174 8.0 8.0 0.00 0.07 0.07 93 1010.8
20260902054104 59 216 3.0 9.0 0.00 0.07 0.07 93 1010.8
20260902051604 59 193 6.0 10.0 0.00 0.07 0.07 93 1010.8
20260902050117 59 229 5.0 8.0 0.02 0.07 0.07 94 1010.8
20260902044604 58 242 6.0 8.0 0.02 0.07 0.07 94 1010.7
20260902044104 58 178 2.0 9.0 0.02 0.07 0.07 94 1010.7
20260902043604 58 194 5.0 9.0 0.02 0.07 0.07 94 1010.7
20260902040605 58 246 2.0 8.0 0.01 0.06 0.06 94 1010.8
20260902034104 58 231 3.0 5.0 0.03 0.05 0.05 93 1010.8
20260902033604 58 209 2.0 5.0 0.04 0.05 0.05 93 1010.9
20260902033105 58 217 3.0 8.0 0.05 0.05 0.05 93 1010.9
20260902031104 58 192 5.0 8.0 0.05 0.05 0.05 93 1011.1
20260902030604 57 200 5.0 7.0 0.05 0.05 0.05 92 1011.1
20260902030115 57 216 2.0 9.0 0.05 0.05 0.05 92 1011.2
20260902024604 57 202 5.0 6.0 0.04 0.04 0.04 92 1011.2
20260902024104 58 257 3.0 3.0 0.02 0.02 0.02 91 1011.3
20260902021604 58 219 3.0 6.0 0.00 0.00 0.00 87 1011.4
20260902021104 58 242 5.0 9.0 0.00 0.00 0.00 87 1011.4
20260902013604 58 212 5.0 6.0 0.00 0.00 0.00 86 1011.7
20260902013104 58 205 5.0 8.0 0.00 0.00 0.00 85 1011.6
20260902011604 58 292 6.0 8.0 0.00 0.00 0.00 85 1011.7
20260902010115 57 248 2.0 10.0 0.00 0.00 0.00 86 1011.7
20260902004603 57 134 5.0 9.0 0.00 0.00 0.00 86 1011.6
20260902003104 57 207 5.0 6.0 0.00 0.00 0.00 86 1011.6
20260902001603 57 205 5.0 12.0 0.00 0.00 0.00 86 1011.8
20260901234603 57 192 3.0 8.0 0.00 0.00 0.00 85 1011.8
20260901234104 57 170 3.0 8.0 0.00 0.00 0.00 85 1011.8
20260901233103 57 243 5.0 8.0 0.00 0.00 0.00 84 1011.9
20260901230603 57 258 3.0 7.0 0.00 0.00 0.00 84 1012.1
20260901224602 58 180 2.0 12.0 0.00 0.00 0.00 84 1012.0
20260901223603 58 212 1.0 8.0 0.00 0.00 0.00 84 1012.0
20260901214604 59 281 3.0 16.0 0.00 0.23 0.00 83 1011.9
20260901214103 59 201 9.0 16.0 0.00 0.23 0.00 83 1011.9
20260901213103 59 225 5.0 21.0 0.00 0.23 0.00 83 1011.8
20260901211103 59 261 3.0 12.0 0.00 0.23 0.00 84 1011.6
20260901210603 59 263 7.0 12.0 0.00 0.23 0.00 84 1011.6
20260901210114 59 281 3.0 10.0 0.00 0.23 0.00 84 1011.6
20260901204603 60 230 5.0 10.0 0.00 0.23 0.00 85 1011.6
20260901204104 60 221 3.0 7.0 0.00 0.23 0.00 85 1011.5
20260901201603 60 176 2.0 12.0 0.00 0.23 0.00 86 1011.5
20260901201103 60 186 2.0 10.0 0.00 0.23 0.00 86 1011.6
20260901200114 60 232 5.0 8.0 0.00 0.23 0.00 86 1011.5
20260901194603 60 197 3.0 7.0 0.00 0.23 0.00 85 1011.5
20260901194103 60 186 1.0 7.0 0.00 0.23 0.00 85 1011.5
20260901193603 60 173 1.0 8.0 0.00 0.23 0.00 85 1011.5
20260901184104 60 289 5.0 6.0 0.00 0.23 0.00 84 1011.5
20260901183603 60 269 1.0 5.0 0.00 0.23 0.00 83 1011.5
20260901181103 60 209 5.0 6.0 0.00 0.23 0.00 82 1011.3
20260901180603 60 256 6.0 9.0 0.00 0.23 0.00 82 1011.4
20260901180115 61 244 2.0 9.0 0.00 0.23 0.00 83 1011.3
20260901174603 61 272 3.0 5.0 0.00 0.23 0.00 82 1011.2
20260901174103 61 242 3.0 3.0 0.00 0.23 0.00 82 1011.2
20260901173603 61 219 3.0 6.0 0.00 0.23 0.00 81 1011.1
20260901171603 62 213 1.0 6.0 0.00 0.23 0.00 78 1011.0
20260901171103 62 184 5.0 6.0 0.00 0.23 0.00 78 1011.0
20260901170115 62 227 2.0 8.0 0.00 0.24 0.00 77 1011.0
20260901164603 63 261 2.0 12.0 0.00 0.28 0.00 76 1011.0
20260901163603 63 199 6.0 13.0 0.00 0.31 0.00 75 1010.9
20260901161103 64 267 7.0 12.0 0.00 0.40 0.00 73 1010.8
20260901154103 66 207 6.0 13.0 0.00 0.43 0.00 70 1010.7
20260901153103 67 219 3.0 10.0 0.00 0.43 0.00 71 1010.6
20260901151103 66 182 5.0 12.0 0.00 0.43 0.00 69 1010.5
20260901150603 66 254 5.0 10.0 0.00 0.43 0.00 69 1010.5
20260901150115 66 213 6.0 12.0 0.00 0.43 0.00 70 1010.5
20260901144603 66 232 2.0 9.0 0.00 0.43 0.00 69 1010.6
20260901144104 66 236 3.0 9.0 0.00 0.43 0.00 72 1010.6
20260901143603 66 213 5.0 9.0 0.00 0.43 0.00 72 1010.5
20260901141603 65 219 6.0 9.0 0.00 0.44 0.00 72 1010.5
20260901141103 65 228 3.0 9.0 0.00 0.46 0.00 71 1010.5
20260901140603 66 194 9.0 9.0 0.00 0.46 0.00 72 1010.5
20260901131603 66 259 8.0 14.0 0.00 0.46 0.00 69 1010.6
20260901131103 67 194 8.0 8.0 0.00 0.46 0.00 68 1010.5
20260901130115 67 221 10.0 12.0 0.00 0.46 0.00 66 1010.4
20260901123603 67 219 8.0 7.0 0.00 0.46 0.00 72 1010.3
20260901123104 66 13 2.0 9.0 0.00 0.46 0.00 73 1010.3
20260901121603 66 268 5.0 7.0 0.00 0.46 0.00 76 1010.3
20260901120115 65 209 5.0 8.0 0.00 0.46 0.00 77 1010.3
20260901114103 64 300 1.0 8.0 0.00 0.46 0.00 80 1010.4
20260901113603 64 205 3.0 8.0 0.00 0.46 0.00 81 1010.4
20260901111103 64 269 2.0 8.0 0.00 0.46 0.00 80 1010.2
20260901110115 64 245 5.0 10.0 0.00 0.46 0.00 80 1010.2
20260901104603 64 216 6.0 8.0 0.00 0.46 0.00 80 1010.1
20260901104103 64 210 5.0 8.0 0.00 0.46 0.00 78 1010.0